Regional Weather Roundup
Issued by NWS

Home | Current Version | Previous Version | Text Only | Print | Product List | Glossary Off
Versions: 1 2 3 4 5 6 7 8 9 10 11 12 13 14 15 16 17 18 19 20 21 22 23 24 25 26 27 28 29 30 31 32 33 34 35 36 37 38 39 40 41 42 43 44 45 46 47 48 49 50

000
ASUS43 KBIS 031002
RWRND

NORTH DAKOTA REGIONAL WEATHER ROUNDUP
NATIONAL WEATHER SERVICE BISMARCK ND
500 AM CDT WED JUN 03 2015

NOTE: "FAIR" INDICATES FEW OR NO CLOUDS BELOW 12,000 FEET WITH NO
SIGNIFICANT WEATHER AND/OR OBSTRUCTIONS TO VISIBILITY.


NDZ001>003-009>011-017-031100-
NORTHWEST NORTH DAKOTA

CITY           SKY/WX    TMP DP  RH WIND       PRES   REMARKS
WILLISTON      MOCLDY    51  49  92 NE7       29.98S
MINOT          CLOUDY    48  45  89 N8        29.94R
$$

NDZ018>021-031>035-040>046-031100-
SOUTHWEST NORTH DAKOTA

CITY           SKY/WX    TMP DP  RH WIND       PRES   REMARKS
BISMARCK       CLOUDY    55  52  89 N17G25    29.85R
DICKINSON      CLOUDY    53  49  86 N13       29.91S
GARRISON         N/A     49  41  74 NE23G31   29.91R
HETTINGER ARPT CLOUDY    54  51  90 NW14G21   29.91S
$$

NDZ004>008-012>016-024-026-027-054-031100-
NORTHEAST NORTH DAKOTA

CITY           SKY/WX    TMP DP  RH WIND       PRES   REMARKS
GRAND FORKS    CLOUDY    61  59  93 N14       29.74R
DEVILS LAKE    CLOUDY    48  39  71 N20       29.83F
$$

NDZ022-023-025-028>030-036>039-047>053-031100-
SOUTHEAST NORTH DAKOTA

CITY           SKY/WX    TMP DP  RH WIND       PRES   REMARKS
FARGO          CLOUDY    65  61  87 S10       29.69R
JAMESTOWN      CLOUDY    61  59  93 N15       29.74F
$$




USA.gov is the U.S. government's official web portal to all federal, state and local government web resources and services.